Location: Unspecified
(51.5147°N, 7.4673°E)
Time: 06:01:46
(UTC+01:00)

Transit 4A - Pass Details

Date: 22 February 2026
Orbit: 863 x 978 km, 66.8° (Epoch: 14 March)

Event Time Altitude Azimuth Distance (km) Brightness Sun altitude
Exits shadow 03:54:31 55° 47° (NE) 1,080 8.4 -33.4°
Drops below altitude 10° 03:59:13 10° 39° (NE) 2,625 11.0 -32.8°
Sets 04:01:47 0° 39° (NE) 3,589 11.9 -32.4°
